sat.trackr.live / text

‹ back to catalog

UNKNOWN

NORAD 87737

UNKNOWN UNKNOWN UNKNOWN

§ Identity

Operator
Country
Launch date
Launch site
Launch vehicle
Mass (kg)
RCS (m²)

External: N2YO · Heavens-Above

§ Orbital elements

Epoch: 2026-09-17T20:34:53.653152Z

Period
104.93 min
Inclination
99.3333°
Eccentricity
0.0132971
Mean motion
13.72381541 rev/d
Perigee alt
893.0 km
Apogee alt
1,089.0 km
Semi-major
7,369.2 km
B*
4.4310e-5
RAAN
131.0355°
Arg perigee
181.2017°
Mean anomaly
178.8830°
Rev number
64,214

§ Raw data

UNKNOWN1 87737U          26260.85756543  .00000000  00000+0  44310-4 0  99962 87737  99.3333 131.0355 0132971 181.2017 178.8830 13.72381541642142

JSON: /api/v1/satellites/87737 · /tle

For live sub-satellite position, see the globe view (requires WebGL).

§ Visibility from observer

Set your observer location to see the next 7 days of passes ≥ 10°. The values pass through the URL so the page stays shareable.

No JS? Fill the form by hand. The geolocation button needs JavaScript.